Date String (YYYY-MM-DD hh:mm:ss) UTC,Instrument flags,Ambient pressure (hPa),Sample flow (lpm),Bypass flow (lpm),Sample temperature (°C),Ambient temperature (°C),ASC tube jacket temperature (°C),LED temperature (°C),Box temperature (°C),Sample RH (%),Span deviation,Mass concentration (μg/m³),Mass concentration (μg/m³),Mass concentration (μg/m³)
DateTimeUTC,F1_M11,P_M11,Q1_M11,Q2_M11,T1_M11,T2_M11,T3_M11,T4_M11,T5_M11,U1_M11,ZSPAN_M11,X2_M11,X0_M11,X1_M11
2022-01-17 00:00:00,,0828.0,5.01,0.00,26.0,25.0,00.0,35.1,27.7,08.5,0000.0,0002.01,0005.18,0001.66
2022-01-17 00:01:00,,0828.0,4.99,0.00,26.0,25.0,00.0,35.1,27.7,08.6,0000.0,0002.01,0004.18,0001.66
2022-01-17 00:02:00,,0828.1,5.01,0.00,26.0,25.0,00.0,35.1,27.7,08.6,0000.0,0002.05,0003.78,0001.65
2022-01-17 00:03:00,,0828.1,5.00,0.00,26.0,25.1,00.0,35.1,27.8,08.6,0000.0,0002.06,0003.81,0001.65
2022-01-17 00:04:00,,0828.1,5.01,0.00,26.0,25.1,00.0,35.1,27.8,08.6,0000.0,0002.06,0003.89,0001.64
2022-01-17 00:05:00,,0828.2,4.99,0.00,26.0,25.2,00.0,35.1,27.8,08.6,0000.0,0002.06,0004.66,0001.63
2022-01-17 00:06:00,,0828.1,5.02,0.00,26.0,25.2,00.0,35.0,27.8,08.5,0000.0,0002.06,0005.10,0001.63
2022-01-17 00:07:00,,0828.1,4.99,0.00,26.0,25.2,00.0,35.0,27.8,08.5,0000.0,0002.01,0005.07,0001.62
2022-01-17 00:08:00,,0828.0,5.01,0.00,26.0,25.2,00.0,35.0,27.9,08.5,0000.0,0002.04,0005.48,0001.63
2022-01-17 00:09:00,,0828.0,5.00,0.00,26.1,25.3,00.0,35.0,27.9,08.5,0000.0,0002.06,0005.87,0001.62
2022-01-17 00:10:00,,0828.1,5.02,0.00,26.1,25.4,00.0,35.0,27.9,08.5,0000.0,0002.05,0005.28,0001.62
2022-01-17 00:11:00,,0828.0,4.98,0.00,26.1,25.4,00.0,35.0,27.9,08.5,0000.0,0002.09,0005.24,0001.61
2022-01-17 00:12:00,,0828.1,5.02,0.00,26.1,25.4,00.0,35.0,27.9,08.4,0000.0,0002.06,0005.13,0001.61
2022-01-17 00:13:00,,0828.1,4.99,0.00,26.1,25.5,00.0,35.0,27.9,08.4,0000.0,0002.02,0004.98,0001.61
2022-01-17 00:14:00,,0828.2,5.00,0.00,26.1,25.5,00.0,35.1,28.0,08.4,0000.0,0002.02,0005.10,0001.61
2022-01-17 00:15:00,,0828.1,5.01,0.00,26.2,25.5,00.0,35.1,28.0,08.4,0000.0,0002.04,0005.09,0001.60
2022-01-17 00:16:00,,0828.1,4.99,0.00,26.2,25.5,00.0,35.1,28.0,08.3,0000.0,0002.01,0004.28,0001.60
2022-01-17 00:17:00,,0828.2,5.02,0.00,26.2,25.5,00.0,35.1,28.0,08.3,0000.0,0001.98,0004.01,0001.60
2022-01-17 00:18:00,,0828.1,4.98,0.00,26.2,25.5,00.0,35.1,28.0,08.3,0000.0,0001.97,0003.91,0001.59
2022-01-17 00:19:00,,0828.2,5.01,0.00,26.2,25.5,00.0,35.1,28.0,08.3,0000.0,0001.95,0003.64,0001.58
2022-01-17 00:20:00,,0828.1,5.00,0.00,26.2,25.5,00.0,35.1,28.0,08.3,0000.0,0001.92,0003.46,0001.58
2022-01-17 00:21:00,,0828.1,4.99,0.00,26.2,25.5,00.0,35.1,28.0,08.3,0000.0,0001.91,0004.33,0001.58
2022-01-17 00:22:00,,0828.1,5.00,0.00,26.2,25.5,00.0,35.1,28.0,08.3,0000.0,0001.87,0004.17,0001.58
2022-01-17 00:23:00,,0828.0,5.01,0.00,26.2,25.5,00.0,35.1,28.0,08.3,0000.0,0001.85,0004.10,0001.58
2022-01-17 00:24:00,,0828.1,5.00,0.00,26.2,25.6,00.0,35.1,28.0,08.3,0000.0,0001.89,0004.23,0001.59
2022-01-17 00:25:00,,0828.0,4.99,0.00,26.2,25.6,00.0,35.1,28.0,08.3,0000.0,0001.89,0004.19,0001.59
2022-01-17 00:26:00,,0828.0,5.01,0.00,26.2,25.6,00.0,35.1,28.0,08.3,0000.0,0001.88,0004.21,0001.61
2022-01-17 00:27:00,,0828.1,5.01,0.00,26.2,25.6,00.0,35.1,28.0,08.3,0000.0,0001.90,0004.82,0001.61
2022-01-17 00:28:00,,0828.1,4.98,0.00,26.2,25.6,00.0,35.1,28.0,08.3,0000.0,0001.93,0004.72,0001.61
2022-01-17 00:29:00,,0828.0,5.01,0.00,26.2,25.6,00.0,35.1,28.0,08.3,0000.0,0001.97,0004.75,0001.62
2022-01-17 00:30:00,,0828.1,4.99,0.00,26.2,25.6,00.0,35.1,28.0,08.3,0000.0,0001.98,0004.75,0001.63
2022-01-17 00:31:00,,0828.0,5.01,0.00,26.2,25.6,00.0,35.1,28.0,08.3,0000.0,0002.01,0004.71,0001.64
2022-01-17 00:32:00,,0828.0,4.99,0.00,26.2,25.5,00.0,35.1,28.0,08.3,0000.0,0002.05,0003.65,0001.64
2022-01-17 00:33:00,,0828.1,5.01,0.00,26.2,25.5,00.0,35.2,28.0,08.3,0000.0,0002.06,0003.72,0001.63
2022-01-17 00:34:00,,0828.1,5.00,0.00,26.2,25.6,00.0,35.2,28.0,08.3,0000.0,0002.05,0003.81,0001.63
2022-01-17 00:35:00,,0828.1,4.98,0.00,26.2,25.6,00.0,35.2,28.0,08.3,0000.0,0002.04,0004.08,0001.62
2022-01-17 00:36:00,,0828.1,5.01,0.00,26.2,25.6,00.0,35.2,28.0,08.3,0000.0,0002.01,0004.14,0001.62
2022-01-17 00:37:00,,0828.0,5.00,0.00,26.2,25.6,00.0,35.2,28.1,08.3,0000.0,0002.01,0004.81,0001.61
2022-01-17 00:38:00,,0828.1,5.02,0.00,26.3,25.6,00.0,35.2,28.1,08.3,0000.0,0001.97,0004.16,0001.61
2022-01-17 00:39:00,,0828.0,4.98,0.00,26.3,25.6,00.0,35.2,28.1,08.3,0000.0,0001.93,0004.08,0001.60
2022-01-17 00:40:00,,0828.1,5.00,0.00,26.3,25.6,00.0,35.2,28.1,08.2,0000.0,0001.89,0004.01,0001.58
2022-01-17 00:41:00,,0828.1,4.99,0.00,26.3,25.6,00.0,35.2,28.1,08.2,0000.0,0001.87,0004.01,0001.57
2022-01-17 00:42:00,,0828.1,5.00,0.00,26.3,25.6,00.0,35.2,28.1,08.2,0000.0,0001.87,0004.08,0001.58
2022-01-17 00:43:00,,0828.1,5.00,0.00,26.3,25.6,00.0,35.2,28.1,08.2,0000.0,0001.86,0004.14,0001.58
2022-01-17 00:44:00,,0828.1,5.00,0.00,26.3,25.6,00.0,35.2,28.1,08.2,0000.0,0001.86,0004.15,0001.59
2022-01-17 00:45:00,,0828.1,5.00,0.00,26.3,25.6,00.0,35.2,28.1,08.3,0000.0,0001.85,0004.23,0001.59
2022-01-17 00:46:00,,0828.1,4.98,0.00,26.3,25.6,00.0,35.2,28.1,08.2,0000.0,0001.82,0004.65,0001.59
2022-01-17 00:47:00,,0828.1,5.01,0.00,26.3,25.6,00.0,35.2,28.0,08.2,0000.0,0001.83,0004.56,0001.59
2022-01-17 00:48:00,,0828.1,4.98,0.00,26.3,25.6,00.0,35.2,28.0,08.2,0000.0,0001.82,0004.60,0001.59
2022-01-17 00:49:00,,0828.1,5.00,0.00,26.3,25.5,00.0,35.2,28.1,08.2,0000.0,0001.85,0006.25,0001.61
2022-01-17 00:50:00,,0828.1,5.00,0.00,26.3,25.5,00.0,35.2,28.1,08.2,0000.0,0001.88,0006.41,0001.61
2022-01-17 00:51:00,,0828.1,4.99,0.00,26.3,25.5,00.0,35.2,28.1,08.2,0000.0,0001.90,0006.47,0001.64
2022-01-17 00:52:00,,0828.4,5.01,0.00,26.3,25.5,00.0,35.2,28.1,08.2,0000.0,0001.93,0006.52,0001.65
2022-01-17 00:53:00,,0828.4,5.00,0.00,26.3,25.5,00.0,35.2,28.0,08.2,0000.0,0001.92,0006.56,0001.65
2022-01-17 00:54:00,,0828.1,5.00,0.00,26.3,25.5,00.0,35.2,28.0,08.3,0000.0,0001.92,0007.46,0001.67
2022-01-17 00:55:00,,0828.2,4.99,0.00,26.2,25.5,00.0,35.2,28.0,08.3,0000.0,0001.93,0007.42,0001.69
2022-01-17 00:56:00,,0828.4,5.02,0.00,26.2,25.5,00.0,35.2,28.0,08.3,0000.0,0001.96,0007.30,0001.71
2022-01-17 00:57:00,,0828.2,5.00,0.00,26.2,25.5,00.0,35.2,28.0,08.3,0000.0,0002.02,0006.57,0001.73
2022-01-17 00:58:00,,0828.2,4.99,0.00,26.2,25.5,00.0,35.2,28.0,08.3,0000.0,0002.03,0006.60,0001.76
2022-01-17 00:59:00,,0828.4,5.01,0.00,26.2,25.5,00.0,35.2,28.0,08.3,0000.0,0002.06,0006.25,0001.77
